Cozumel, Mexico

2:12 AM EST on June 29, 2017 (GMT -0500)
Cozumel

Weather History for MMCZ - November, 2013

Change the Weather History Date:

Sunday, November 24, 2013

  Actual Average Record
Temperature  
Mean Temperature 72 °F -  
Max Temperature 80 °F 81 °F 87 °F (1997)
Min Temperature 64 °F 71 °F 62 °F (2011)
Cooling Degree Days 7    
Growing Degree Days 22 (Base 50)    
Moisture  
Dew Point 68 °F    
Average Humidity 89    
Maximum Humidity 100    
Minimum Humidity 70    
Precipitation  
Precipitation 0.00 in - - ()
Sea Level Pressure  
Sea Level Pressure 29.98 in    
Wind  
Wind Speed 2 mph ()    
Max Wind Speed 9 mph    
Max Gust Speed -    
Visibility 7.4 miles    
Events Thunderstorm    
Averages and records for this station are not official NWS values.
T = Trace of Precipitation, MM = Missing Value Source: Averaged Metar Reports

Daily Weather History Graph

Daily Weather History Graph

Search for Another Location

Airport or City:

Trip Planner

Search our weather history database for the weather conditions in past years. The results will help you decide how hot, cold, wet, or windy it might be!

Date:

Astronomy

Nov. 24, 2013 Rise Set
Actual Time 6:03 AM CST 5:05 PM CST
Civil Twilight 5:39 AM CST 5:29 PM CST
Nautical Twilight 5:12 AM CST 5:56 PM CST
Astronomical Twilight 4:45 AM CST 6:23 PM CST
Moon 11:06 PM CST (11/24) 11:11 AM CST (11/24)
Length of Visible Light 11h 50m
Length of Day
11h 02m
Waning Gibbous, 60% of the Moon is Illuminated
Nov 24
Waning Gibbous
Nov 25
Last Quarter
Dec 2
New
Dec 9
First Quarter
Dec 17
Full

Hourly Weather History & Observations

Time (CST) Temp. Heat Index Dew Point Humidity Pressure Visibility Wind Dir Wind Speed Gust Speed Precip Events Conditions
1:03 AM 66.2 °F - 66.2 °F 100% 29.96 in 7.0 mi Calm Calm - N/A   Partly Cloudy
1:40 AM 64.4 °F - 64.4 °F 100% 29.94 in 7.0 mi Calm Calm - N/A   Partly Cloudy
2:48 AM 64.4 °F - 64.4 °F 100% 29.97 in 7.0 mi Calm Calm - N/A   Partly Cloudy
3:42 AM 64.4 °F - 64.4 °F 100% 29.94 in 7.0 mi Calm Calm - N/A   Partly Cloudy
4:44 AM 64.4 °F - 64.4 °F 100% 29.95 in 7.0 mi Calm Calm - N/A   Partly Cloudy
5:42 AM 64.4 °F - 64.4 °F 100% 29.94 in 7.0 mi Calm Calm - N/A   Scattered Clouds
6:46 AM 64.4 °F - 64.4 °F 100% 29.98 in 8.0 mi Calm Calm - N/A   Partly Cloudy
7:40 AM 69.8 °F - 69.8 °F 100% 30.00 in 8.0 mi Calm Calm - N/A   Scattered Clouds
8:40 AM 78.8 °F - 69.8 °F 74% 30.04 in 8.0 mi East 4.6 mph - N/A   Scattered Clouds
9:40 AM 78.8 °F - 69.8 °F 74% 30.02 in 8.0 mi ENE 4.6 mph - N/A   Scattered Clouds
10:40 AM 80.6 °F 83.9 °F 69.8 °F 70% 30.01 in 8.0 mi NE 5.8 mph - N/A   Scattered Clouds
11:40 AM 80.6 °F 83.9 °F 69.8 °F 70% 29.98 in 8.0 mi East 6.9 mph - N/A   Scattered Clouds
12:40 PM 80.6 °F 83.9 °F 69.8 °F 70% 29.96 in 8.0 mi ENE 6.9 mph - N/A   Scattered Clouds
1:40 PM 80.6 °F 83.9 °F 69.8 °F 70% 29.95 in 8.0 mi NE 9.2 mph - N/A   Mostly Cloudy
2:40 PM 80.6 °F 84.6 °F 71.6 °F 74% 29.97 in 8.0 mi East 6.9 mph - N/A   Mostly Cloudy
3:40 PM 77.0 °F - 69.8 °F 78% 29.94 in 8.0 mi East 4.6 mph - N/A   Mostly Cloudy
4:43 PM 75.2 °F - 71.6 °F 89% 29.96 in 8.0 mi East 4.6 mph - N/A   Mostly Cloudy
5:46 PM 71.6 °F - 68.0 °F 88% 29.97 in 6.0 mi ENE 8.1 mph - N/A Thunderstorm Thunderstorm
6:43 PM 71.6 °F - 69.8 °F 94% 29.99 in 6.0 mi Calm Calm - N/A   Mostly Cloudy
7:46 PM 69.8 °F - 69.8 °F 100% 30.00 in 7.0 mi Calm Calm - N/A   Mostly Cloudy
8:41 PM 69.8 °F - 69.8 °F 100% 30.03 in 7.0 mi East 3.5 mph - N/A   Mostly Cloudy
9:47 PM 71.6 °F - 69.8 °F 94% 30.01 in 7.0 mi East 4.6 mph - N/A   Mostly Cloudy
10:44 PM 69.8 °F - 68.0 °F 94% 29.99 in 7.0 mi ESE 3.5 mph - N/A   Mostly Cloudy
11:45 PM 68.0 °F - 68.0 °F 100% 29.95 in 7.0 mi Calm Calm - N/A   Mostly Cloudy